| time (UTC) | temp F | wind direction | speed MPH | gust MPH | rain 1hr in | rain 24hr in | rain mn in | humidity % | barometer mb |
| 20260507140016 | 53 | 0.0 | 1.0 | 0.00 | 0.14 | 0.06 | 53 | 1012.8 | |
| 20260507133016 | 53 | 0.0 | 1.0 | 0.00 | 0.20 | 0.06 | 47 | 1012.9 | |
| 20260507130018 | 52 | 0.0 | 0.0 | 0.00 | 0.24 | 0.06 | 6 | 1012.6 | |
| 20260507123038 | 52 | 0.0 | 0.0 | 0.00 | 0.27 | 0.06 | 9 | 1012.7 | |
| 20260507120018 | 51 | 0.0 | 0.0 | 0.00 | 0.28 | 0.06 | 1 | 1012.5 | |
| 20260507113017 | 51 | 0.0 | 0.0 | 0.00 | 0.28 | 0.06 | 1 | 1012.4 | |
| 20260507110017 | 52 | 0.0 | 0.0 | 0.00 | 0.28 | 0.06 | 1 | 1012.2 | |
| 20260507103017 | 54 | 0.0 | 0.0 | 0.00 | 0.28 | 0.06 | 1 | 1011.9 | |
| 20260507100017 | 54 | 0.0 | 0.0 | 0.00 | 0.28 | 0.06 | 1 | 1011.6 | |
| 20260507093017 | 54 | 0.0 | 0.0 | 0.00 | 0.28 | 0.06 | 1 | 1011.4 | |
| 20260507090058 | 55 | 0.0 | 0.0 | 0.00 | 0.28 | 0.06 | 1 | 1011.7 | |
| 20260507083017 | 55 | 0.0 | 0.0 | 0.00 | 0.28 | 0.06 | 1 | 1011.4 | |
| 20260507080017 | 55 | 0.0 | 0.0 | 0.00 | 0.28 | 0.06 | 1 | 1010.8 | |
| 20260507073017 | 56 | 0.0 | 1.0 | 0.00 | 0.28 | 0.06 | 1 | 1010.5 | |
| 20260507070017 | 57 | 0.0 | 1.0 | 0.01 | 0.28 | 0.06 | 1 | 1010.5 | |
| 20260507063017 | 57 | 0.0 | 0.0 | 0.02 | 0.28 | 0.06 | 1 | 1010.6 | |
| 20260507060017 | 57 | 0.0 | 1.0 | 0.03 | 0.27 | 0.05 | 1 | 1010.3 | |
| 20260507053017 | 58 | 0.0 | 1.0 | 0.04 | 0.26 | 0.04 | 1 | 1010.7 | |
| 20260507050018 | 59 | 0.0 | 1.0 | 0.02 | 0.24 | 0.02 | 1 | 1011.0 | |
| 20260507043017 | 60 | 0.0 | 1.0 | 0.00 | 0.22 | 0.00 | 38 | 1010.6 | |
| 20260507040017 | 61 | 0.0 | 1.0 | 0.00 | 0.22 | 0.00 | 31 | 1010.3 | |
| 20260507033016 | 63 | 0.0 | 1.0 | 0.00 | 0.22 | 0.00 | 43 | 1010.2 | |
| 20260507030037 | 64 | 0.0 | 1.0 | 0.00 | 0.22 | 0.00 | 43 | 1009.5 | |
| 20260507023016 | 64 | 0.0 | 1.0 | 0.00 | 0.22 | 0.00 | 47 | 1009.4 | |
| 20260507020016 | 66 | 0.0 | 2.0 | 0.00 | 0.22 | 0.00 | 42 | 1009.2 | |
| 20260507013017 | 67 | 0.0 | 1.0 | 0.00 | 0.22 | 0.00 | 29 | 1009.7 | |
| 20260507010058 | 67 | 0.0 | 0.0 | 0.00 | 0.22 | 0.00 | 1 | 1009.4 | |
| 20260507003017 | 68 | 0.0 | 0.0 | 0.00 | 0.22 | 0.00 | 7 | 1009.1 | |
| 20260507000016 | 68 | 0.0 | 1.0 | 0.00 | 0.22 | 0.22 | 12 | 1008.8 | |
| 20260506233017 | 69 | 0.0 | 1.0 | 0.00 | 0.22 | 0.22 | 22 | 1008.5 | |
| 20260506230016 | 69 | 0.0 | 2.0 | 0.00 | 0.22 | 0.22 | 25 | 1008.2 | |
| 20260506223017 | 70 | 0.0 | 3.0 | 0.00 | 0.22 | 0.22 | 27 | 1008.1 | |
| 20260506220016 | 70 | 0.0 | 4.0 | 0.00 | 0.22 | 0.22 | 33 | 1008.2 | |
| 20260506213016 | 71 | 0.0 | 4.0 | 0.00 | 0.22 | 0.22 | 47 | 1008.1 | |
| 20260506210016 | 71 | 0.0 | 3.0 | 0.00 | 0.22 | 0.22 | 39 | 1007.7 | |
| 20260506203016 | 71 | 0.0 | 4.0 | 0.00 | 0.22 | 0.22 | 44 | 1007.6 | |
| 20260506200016 | 70 | 158 | 1.0 | 3.0 | 0.00 | 0.22 | 0.22 | 41 | 1007.8 |
| 20260506193016 | 69 | 225 | 1.0 | 7.0 | 0.00 | 0.22 | 0.22 | 34 | 1007.8 |
| 20260506190016 | 68 | 225 | 1.0 | 7.0 | 0.00 | 0.22 | 0.22 | 22 | 1008.1 |
| 20260506183016 | 66 | 225 | 1.0 | 7.0 | 0.00 | 0.22 | 0.22 | 6 | 1008.5 |
| 20260506180016 | 66 | 225 | 1.0 | 6.0 | 0.00 | 0.22 | 0.22 | 1 | 1008.6 |
| 20260506173016 | 64 | 225 | 1.0 | 9.0 | 0.00 | 0.22 | 0.22 | 1 | 1008.7 |
| 20260506170016 | 63 | 225 | 1.0 | 5.0 | 0.00 | 0.22 | 0.22 | 1 | 1008.8 |
| 20260506163016 | 63 | 0.0 | 5.0 | 0.00 | 0.22 | 0.22 | 1 | 1008.9 | |
| 20260506160017 | 62 | 225 | 1.0 | 8.0 | 0.03 | 0.22 | 0.22 | 1 | 1009.1 |
| 20260506153016 | 62 | 0.0 | 4.0 | 0.04 | 0.22 | 0.22 | 1 | 1009.4 | |
| 20260506150016 | 61 | 0.0 | 3.0 | 0.06 | 0.19 | 0.19 | 1 | 1009.7 | |
| 20260506143015 | 61 | 0.0 | 4.0 | 0.11 | 0.18 | 0.18 | 1 | 1009.9 |